Regional Weather Roundup
Issued by NWS Northern Indiana

Home | Current Version | Previous Version | Text Only | Print | Product List | Glossary Off
Versions: 1 2 3 4 5 6 7 8 9 10 11 12 13 14 15 16 17 18 19 20 21 22 23 24 25 26 27 28 29 30 31 32 33 34 35 36 37 38 39 40 41 42 43 44 45 46 47 48 49 50

000
ASUS43 KIWX 201700
RWRIWX

KIWX WEATHER ROUNDUP
NATIONAL WEATHER SERVICE NORTHERN INDIANA
100 PM EDT SAT SEP 20 2014

NOTE: "FAIR" INDICATES FEW OR NO CLOUDS BELOW 12,000 FEET WITH NO
SIGNIFICANT WEATHER AND/OR OBSTRUCTIONS TO VISIBILITY.

* THESE STATIONS ARE NOT UNDER NWS QUALITY CONTROL. THEY ALSO MAY NOT
  REPORT WEATHER SUCH AS PRECIPITATION OR FOG.

INZ001>027-201800-
NORTHERN INDIANA

CITY           SKY/WX    TMP DP  RH WIND       PRES   REMARKS
GARY*          PTSUNNY   77  64  65 S14       29.87F
VALPARAISO     MOSUNNY   77  63  61 S15G22    29.89F
SOUTH BEND     MOSUNNY   78  62  57 SW17G28   29.89F
GOSHEN         MOSUNNY   77  62  59 SW18G28   29.91F
ANGOLA*        SUNNY     75  61  60 SW20      29.91F
FORT WAYNE     PTSUNNY   75  60  59 SW18      29.96F
PERU/GRISSOM   PTSUNNY   75  67  77 SW16G28   29.95F

$$
INZ028>050-201800-
CENTRAL INDIANA

CITY           SKY/WX    TMP DP  RH WIND       PRES   REMARKS
LAFAYETTE      PTSUNNY   75  62  64 S13G23    29.96F
KOKOMO*        CLOUDY    77  63  61 SW18G25   29.97F
MUNCIE*        PTSUNNY   76  51  41 SW13      30.00F
INDIANAPOLIS   CLOUDY    76  62  62 SW13      30.02F

$$
MIZ043>046-050>051-056>058-064>065-071>073-077>080-201800-
SOUTHWEST LOWER MICHIGAN

CITY           SKY/WX    TMP DP  RH WIND       PRES   REMARKS
BATTLE CREEK   PTSUNNY   75  61  61 SW16      29.89S
BENTON HARBOR  MOSUNNY   76  63  64 S14G23    29.86S
COLDWATER*     SUNNY     77  62  59 SW15G25   29.90F
HILLSDALE*     MOSUNNY   76  60  58 SW13G20   29.91F
HOLLAND        CLOUDY    70  62  76 SW22      29.86F
GRAND RAPIDS   PTSUNNY   75  65  70 SW15      29.85F
KALAMAZOO      MOSUNNY   76  62  62 SW21G28   29.88F
STURGIS*       MOSUNNY   75  64  69 S20       29.90F
THREE RIVERS*  FAIR      75  63  65 SW18      29.89F

$$
OHZ001>008-015>018-024>025-201800-
NORTHWEST OHIO

CITY           SKY/WX    TMP DP  RH WIND       PRES   REMARKS
DEFIANCE       PTSUNNY   77  59  53 SW17G29   29.95F
FINDLAY        MOSUNNY   79  59  50 SW18G28   29.98F
TOLEDO EXPRESS MOSUNNY   76  59  55 SW10G23   29.94F
TOLEDO METCALF MOSUNNY   78  57  48 SW15G25   29.95F
LIMA           MOSUNNY   78  60  53 SW21      30.00F

$$
AND FOR LAKE MICHIGAN COASTAL AND OPEN LAKE BUOY OBSERVATIONS

STATION/POSITION TEMP    WIND        PRES    VSBY  WAVE
                 AIR SEA DIR/SP/G                  HT/PER
                 (F)     (DEG/KT/KT) (MB)    (MI)  (FT/S)
CALUMET HARBOR    74     210/ 11/ 16 1010.0S
MICHIGAN CITY     72     180/ 18/ 25   N/A
SAINT JOSEPH      72     210/ 14/ 23 1012.2R
SOUTH LAKE BUOY   64 63  220/ 14/ 17 1010.1S         5/ 6
4 MI NW BRIDGMAN  70 65  190/ 12/ 16   N/A           4/ 5
MICHIGAN CITY     71 65  210/ 16/ 21   N/A           3/ 4
SAINT JOSEPH CG                      1010.7F     6   4

$$
&&



USA.gov is the U.S. government's official web portal to all federal, state and local government web resources and services.